COSMOS 2464 (736)

Last updated on Aug. 14, 2020, 5:31 a.m. UTC

1 37139U 10041C   20226.27480561  .00000070  00000-0  00000-0 0  9991
2 37139  64.1555 263.8834 0024979   6.8493 164.0494  2.13100766 77419
UTC
Height (km)
Latitude
Longitude
Inclination
Orbital Period
UTC large
Height (km)
Speed (km/s)
/
Latitude / Longitude
Inclination (degrees)
Orbital Period (minutes)
Azimuth
Elevation
Range (km)
Doppler Factor
iOS Compass Heading
iOS Angle

Next 30 passes for location: Hong Kong

Rise time Rise Azimuth (degrees) Set time Set Azimuth (degrees) Duration Max altitude (degrees)

No matching passes for this satellites